VINASAT-1

Last updated on Sun Oct 06 2024 00:02:38 GMT+0000 (Coordinated Universal Time)

1 32767U 08018A 24279.59670304 -.00000318 00000+0 00000+0 0 9991 2 32767 0.0095 237.1813 0001992 337.5951 146.7333 1.00270325 60373
UTC large
Height (km)
Speed (km/s)
/
Latitude / Longitude
Inclination (degrees)
Orbital Period (minutes)
Azimuth
Elevation
Range (km)
Doppler Factor

Next 0 passes for location: London (51.5072 / 0.1276)

Sorry there are no passes over London.